Simultaneous Nadir Overpasses (SNOs) Predictions

Prediction of SNOs between GOES-16 and NOAA-20 Satellite Orbit:

Table of predicted SNOs for the next 14.0 days since TLE Epoch: 9/4/2020
Index Date Time (GOES-16) GOES-16 Lat,Lon NOAA-20 Lat,Lon Distance(km) Time Diff (sec)
1 09/05/2020 18:38:40 0.05, -75.18 -0.77, -78.72 404.88 80
2 09/06/2020 18:22:36 0.05, -75.17 0.29, -74.20 111.08 80
3 09/08/2020 06:44:22 -0.05, -75.15 0.90, -79.46 491.02 80
4 09/09/2020 06:22:57 -0.05, -75.15 -0.11, -74.93 24.91 80
5 09/11/2020 18:26:06 0.06, -75.14 -0.08, -75.69 63.61 80
6 09/12/2020 18:10:01 0.07, -75.14 0.93, -71.16 452.62 80
7 09/14/2020 06:31:48 -0.07, -75.12 0.21, -76.43 148.87 80
8 09/15/2020 06:10:23 -0.07, -75.12 -0.80, -71.90 367.54 80
9 09/16/2020 18:32:18 0.08, -75.13 -0.39, -77.20 236.14 80
10 09/17/2020 18:16:13 0.08, -75.13 0.62, -72.67 280.82 80
